Year,Month,Day,Hour,Minute,Value (Times are PST for temperature in C)
2021,04,18,00,00,10.20
2021,04,18,00,01,10.20
2021,04,18,00,02,10.10
2021,04,18,00,03,10.10
2021,04,18,00,04,10.10
2021,04,18,00,05,10.10
2021,04,18,00,06,10.10
2021,04,18,00,07,10.00
2021,04,18,00,08,10.00
2021,04,18,00,09,10.00
2021,04,18,00,10,10.00
2021,04,18,00,11,10.00
2021,04,18,00,12,10.00
2021,04,18,00,13,9.90
2021,04,18,00,14,9.90
2021,04,18,00,15,9.90
2021,04,18,00,16,9.90
2021,04,18,00,17,9.90
2021,04,18,00,18,9.90
2021,04,18,00,19,9.90
2021,04,18,00,20,9.90
2021,04,18,00,21,9.90
2021,04,18,00,22,9.90
2021,04,18,00,23,9.80
2021,04,18,00,24,9.80
2021,04,18,00,25,9.80
2021,04,18,00,26,9.80
2021,04,18,00,27,9.80
2021,04,18,00,28,9.80
2021,04,18,00,29,9.80
2021,04,18,00,30,9.70
2021,04,18,00,31,9.70
2021,04,18,00,32,9.70
2021,04,18,00,33,9.70
2021,04,18,00,34,9.70
2021,04,18,00,35,9.60
2021,04,18,00,36,9.60
2021,04,18,00,37,9.60
2021,04,18,00,38,9.60
2021,04,18,00,39,9.60
2021,04,18,00,40,9.60
2021,04,18,00,41,9.60
2021,04,18,00,42,9.60
2021,04,18,00,43,9.60
2021,04,18,00,44,9.60
2021,04,18,00,45,9.60
2021,04,18,00,46,9.60
2021,04,18,00,47,9.60
2021,04,18,00,48,9.60
2021,04,18,00,49,9.50
2021,04,18,00,50,9.50
2021,04,18,00,51,9.50
2021,04,18,00,52,9.50
2021,04,18,00,53,9.40
2021,04,18,00,54,9.40
2021,04,18,00,55,9.40
2021,04,18,00,56,9.40
2021,04,18,00,57,9.40
2021,04,18,00,58,9.40
2021,04,18,00,59,9.40
2021,04,18,01,00,9.40
2021,04,18,01,01,9.40
2021,04,18,01,02,9.40
2021,04,18,01,03,9.40
2021,04,18,01,04,9.40
2021,04,18,01,05,9.40
2021,04,18,01,06,9.40
2021,04,18,01,07,9.40
2021,04,18,01,08,9.40
2021,04,18,01,09,9.40
2021,04,18,01,10,9.40
2021,04,18,01,11,9.40
2021,04,18,01,12,9.40
2021,04,18,01,13,9.40
2021,04,18,01,14,9.40
2021,04,18,01,15,9.30
2021,04,18,01,16,9.30
2021,04,18,01,17,9.30
2021,04,18,01,18,9.30
2021,04,18,01,19,9.30
2021,04,18,01,20,9.30
2021,04,18,01,21,9.20
2021,04,18,01,22,9.20
2021,04,18,01,23,9.20
2021,04,18,01,24,9.20
2021,04,18,01,25,9.20
2021,04,18,01,26,9.20
2021,04,18,01,27,9.20
2021,04,18,01,28,9.20
2021,04,18,01,29,9.20
2021,04,18,01,30,9.20
2021,04,18,01,31,9.20
2021,04,18,01,32,9.20
2021,04,18,01,33,9.20
2021,04,18,01,34,9.10
2021,04,18,01,35,9.10
2021,04,18,01,36,9.10
2021,04,18,01,37,9.10
2021,04,18,01,38,9.10
2021,04,18,01,39,9.10
2021,04,18,01,40,9.10
2021,04,18,01,41,9.10
2021,04,18,01,42,9.00
2021,04,18,01,43,9.00
2021,04,18,01,44,9.00
2021,04,18,01,45,9.00
2021,04,18,01,46,8.90
2021,04,18,01,47,8.90
2021,04,18,01,48,8.90
2021,04,18,01,49,8.90
2021,04,18,01,50,8.80
2021,04,18,01,51,8.80
2021,04,18,01,52,8.80
2021,04,18,01,53,8.70
2021,04,18,01,54,8.70
2021,04,18,01,55,8.60
2021,04,18,01,56,8.60
2021,04,18,01,57,8.60
2021,04,18,01,58,8.60
2021,04,18,01,59,8.60
2021,04,18,02,00,8.60
2021,04,18,02,01,8.60
2021,04,18,02,02,8.50
2021,04,18,02,03,8.50
2021,04,18,02,04,8.50
2021,04,18,02,05,8.50
2021,04,18,02,06,8.40
2021,04,18,02,07,8.40
2021,04,18,02,08,8.40
2021,04,18,02,09,8.40
2021,04,18,02,10,8.30
2021,04,18,02,11,8.30
2021,04,18,02,12,8.30
2021,04,18,02,13,8.30
2021,04,18,02,14,8.30
2021,04,18,02,15,8.20
2021,04,18,02,16,8.20
2021,04,18,02,17,8.20
2021,04,18,02,18,8.20
2021,04,18,02,19,8.20
2021,04,18,02,20,8.10
2021,04,18,02,21,8.10
2021,04,18,02,22,8.10
2021,04,18,02,23,8.10
2021,04,18,02,24,8.10
2021,04,18,02,25,8.10
2021,04,18,02,26,8.10
2021,04,18,02,27,8.10
2021,04,18,02,28,8.00
2021,04,18,02,29,8.10
2021,04,18,02,30,8.00
2021,04,18,02,31,8.00
2021,04,18,02,32,8.00
2021,04,18,02,33,8.00
2021,04,18,02,34,8.00
2021,04,18,02,35,8.00
2021,04,18,02,36,8.00
2021,04,18,02,37,8.00
2021,04,18,02,38,8.00
2021,04,18,02,39,7.90
2021,04,18,02,40,7.90
2021,04,18,02,41,7.90
2021,04,18,02,42,7.90
2021,04,18,02,43,7.90
2021,04,18,02,44,7.90
2021,04,18,02,45,7.90
2021,04,18,02,46,7.90
2021,04,18,02,47,7.90
2021,04,18,02,48,7.80
2021,04,18,02,49,7.80
2021,04,18,02,50,7.80
2021,04,18,02,51,7.70
2021,04,18,02,52,7.70
2021,04,18,02,53,7.70
2021,04,18,02,54,7.70
2021,04,18,02,55,7.70
2021,04,18,02,56,7.70
2021,04,18,02,57,7.70
2021,04,18,02,58,7.70
2021,04,18,02,59,7.70
2021,04,18,03,00,7.70
2021,04,18,03,01,7.70
2021,04,18,03,02,7.70
2021,04,18,03,03,7.70
2021,04,18,03,04,7.70
2021,04,18,03,05,7.70
2021,04,18,03,06,7.70
2021,04,18,03,07,7.60
2021,04,18,03,08,7.60
2021,04,18,03,09,7.60
2021,04,18,03,10,7.60
2021,04,18,03,11,7.60
2021,04,18,03,12,7.60
2021,04,18,03,13,7.60
2021,04,18,03,14,7.60
2021,04,18,03,15,7.50
2021,04,18,03,16,7.50
2021,04,18,03,17,7.50
2021,04,18,03,18,7.50
2021,04,18,03,19,7.40
2021,04,18,03,20,7.40
2021,04,18,03,21,7.40
2021,04,18,03,22,7.40
2021,04,18,03,23,7.30
2021,04,18,03,24,7.30
2021,04,18,03,25,7.30
2021,04,18,03,26,7.30
2021,04,18,03,27,7.30
2021,04,18,03,28,7.30
2021,04,18,03,29,7.30
2021,04,18,03,30,7.30
2021,04,18,03,31,7.30
2021,04,18,03,32,7.20
2021,04,18,03,33,7.20
2021,04,18,03,34,7.20
2021,04,18,03,35,7.20
2021,04,18,03,36,7.20
2021,04,18,03,37,7.20
2021,04,18,03,38,7.20
2021,04,18,03,39,7.20
2021,04,18,03,40,7.20
2021,04,18,03,41,7.20
2021,04,18,03,42,7.20
2021,04,18,03,43,7.20
2021,04,18,03,44,7.20
2021,04,18,03,45,7.20
2021,04,18,03,46,7.20
2021,04,18,03,47,7.20
2021,04,18,03,48,7.20
2021,04,18,03,49,7.20
2021,04,18,03,50,7.10
2021,04,18,03,51,7.10
2021,04,18,03,52,7.10
2021,04,18,03,53,7.10
2021,04,18,03,54,7.10
2021,04,18,03,55,7.00
2021,04,18,03,56,7.00
2021,04,18,03,57,7.00
2021,04,18,03,58,7.00
2021,04,18,03,59,7.00
2021,04,18,04,00,7.00
2021,04,18,04,01,7.00
2021,04,18,04,02,7.00
2021,04,18,04,03,6.90
2021,04,18,04,04,6.90
2021,04,18,04,05,6.90
2021,04,18,04,06,6.90
2021,04,18,04,07,6.90
2021,04,18,04,08,6.90
2021,04,18,04,09,6.90
2021,04,18,04,10,6.90
2021,04,18,04,11,6.80
2021,04,18,04,12,6.80
2021,04,18,04,13,6.80
2021,04,18,04,14,6.80
2021,04,18,04,15,6.80
2021,04,18,04,16,6.80
2021,04,18,04,17,6.80
2021,04,18,04,18,6.70
2021,04,18,04,19,6.70
2021,04,18,04,20,6.70
2021,04,18,04,21,6.70
2021,04,18,04,22,6.70
2021,04,18,04,23,6.60
2021,04,18,04,24,6.60
2021,04,18,04,25,6.60
2021,04,18,04,26,6.60
2021,04,18,04,27,6.60
2021,04,18,04,28,6.60
2021,04,18,04,29,6.60
2021,04,18,04,30,6.50
2021,04,18,04,31,6.50
2021,04,18,04,32,6.50
2021,04,18,04,33,6.50
2021,04,18,04,34,6.50
2021,04,18,04,35,6.50
2021,04,18,04,36,6.40
2021,04,18,04,37,6.40
2021,04,18,04,38,6.40
2021,04,18,04,39,6.40
2021,04,18,04,40,6.40
2021,04,18,04,41,6.40
2021,04,18,04,42,6.40
2021,04,18,04,43,6.40
2021,04,18,04,44,6.40
2021,04,18,04,45,6.30
2021,04,18,04,46,6.30
2021,04,18,04,47,6.30
2021,04,18,04,48,6.30
2021,04,18,04,49,6.30
2021,04,18,04,50,6.30
2021,04,18,04,51,6.20
2021,04,18,04,52,6.20
2021,04,18,04,53,6.20
2021,04,18,04,54,6.20
2021,04,18,04,55,6.20
2021,04,18,04,56,6.20
2021,04,18,04,57,6.20
2021,04,18,04,58,6.20
2021,04,18,04,59,6.20
2021,04,18,05,00,6.20
2021,04,18,05,01,6.20
2021,04,18,05,02,6.10
2021,04,18,05,03,6.20
2021,04,18,05,04,6.20
2021,04,18,05,05,6.20
2021,04,18,05,06,6.20
2021,04,18,05,07,6.20
2021,04,18,05,08,6.20
2021,04,18,05,09,6.20
2021,04,18,05,10,6.20
2021,04,18,05,11,6.20
2021,04,18,05,12,6.20
2021,04,18,05,13,6.20
2021,04,18,05,14,6.20
2021,04,18,05,15,6.20
2021,04,18,05,16,6.10
2021,04,18,05,17,6.10
2021,04,18,05,18,6.10
2021,04,18,05,19,6.10
2021,04,18,05,20,6.10
2021,04,18,05,21,6.10
2021,04,18,05,22,6.10
2021,04,18,05,23,6.00
2021,04,18,05,24,6.00
2021,04,18,05,25,5.90
2021,04,18,05,26,5.90
2021,04,18,05,27,5.90
2021,04,18,05,28,5.90
2021,04,18,05,29,5.80
2021,04,18,05,30,5.80
2021,04,18,05,31,5.80
2021,04,18,05,32,5.80
2021,04,18,05,33,5.70
2021,04,18,05,34,5.70
2021,04,18,05,35,5.70
2021,04,18,05,36,5.70
2021,04,18,05,37,5.70
2021,04,18,05,38,5.60
2021,04,18,05,39,5.60
2021,04,18,05,40,5.60
2021,04,18,05,41,5.60
2021,04,18,05,42,5.60
2021,04,18,05,43,5.60
2021,04,18,05,44,5.60
2021,04,18,05,45,5.60
2021,04,18,05,46,5.60
2021,04,18,05,47,5.60
2021,04,18,05,48,5.50
2021,04,18,05,49,5.50
2021,04,18,05,50,5.50
2021,04,18,05,51,5.50
2021,04,18,05,52,5.50
2021,04,18,05,53,5.50
2021,04,18,05,54,5.50
2021,04,18,05,55,5.50
2021,04,18,05,56,5.50
2021,04,18,05,57,5.40
2021,04,18,05,58,5.40
2021,04,18,05,59,5.40
2021,04,18,06,00,5.40
2021,04,18,06,01,5.50
2021,04,18,06,02,5.40
2021,04,18,06,03,5.40
2021,04,18,06,04,5.40
2021,04,18,06,05,5.40
2021,04,18,06,06,5.40
2021,04,18,06,07,5.40
2021,04,18,06,08,5.40
2021,04,18,06,09,5.40
2021,04,18,06,10,5.40
2021,04,18,06,11,5.40
2021,04,18,06,12,5.40
2021,04,18,06,13,5.40
2021,04,18,06,14,5.40
2021,04,18,06,15,5.40
2021,04,18,06,16,5.40
2021,04,18,06,17,5.40
2021,04,18,06,18,5.40
2021,04,18,06,19,5.40
2021,04,18,06,20,5.40
2021,04,18,06,21,5.30
2021,04,18,06,22,5.30
2021,04,18,06,23,5.30
2021,04,18,06,24,5.30
2021,04,18,06,25,5.30
2021,04,18,06,26,5.30
2021,04,18,06,27,5.30
2021,04,18,06,28,5.30
2021,04,18,06,29,5.30
2021,04,18,06,30,5.30
2021,04,18,06,31,5.30
2021,04,18,06,32,5.30
2021,04,18,06,33,5.30
2021,04,18,06,34,5.30
2021,04,18,06,35,5.30
2021,04,18,06,36,5.30
2021,04,18,06,37,5.30
2021,04,18,06,38,5.30
2021,04,18,06,39,5.30
2021,04,18,06,40,5.30
2021,04,18,06,41,5.30
2021,04,18,06,42,5.30
2021,04,18,06,43,5.30
2021,04,18,06,44,5.30
2021,04,18,06,45,5.30
2021,04,18,06,46,5.30
2021,04,18,06,47,5.30
2021,04,18,06,48,5.30
2021,04,18,06,49,5.30
2021,04,18,06,50,5.30
2021,04,18,06,51,5.40
2021,04,18,06,52,5.40
2021,04,18,06,53,5.40
2021,04,18,06,54,5.40
2021,04,18,06,55,5.40
2021,04,18,06,56,5.40
2021,04,18,06,57,5.50
2021,04,18,06,58,5.40
2021,04,18,06,59,5.50
2021,04,18,07,00,5.50
2021,04,18,07,01,5.50
2021,04,18,07,02,5.50
2021,04,18,07,03,5.50
2021,04,18,07,04,5.60
2021,04,18,07,05,5.60
2021,04,18,07,06,5.60
2021,04,18,07,07,5.60
2021,04,18,07,08,5.60
2021,04,18,07,09,5.70
2021,04,18,07,10,5.70
2021,04,18,07,11,5.70
2021,04,18,07,12,5.70
2021,04,18,07,13,5.70
2021,04,18,07,14,5.70
2021,04,18,07,15,5.70
2021,04,18,07,16,5.80
2021,04,18,07,17,5.80
2021,04,18,07,18,5.80
2021,04,18,07,19,5.90
2021,04,18,07,20,5.90
2021,04,18,07,21,6.00
2021,04,18,07,22,6.00
2021,04,18,07,23,6.10
2021,04,18,07,24,6.10
2021,04,18,07,25,6.20
2021,04,18,07,26,6.20
2021,04,18,07,27,6.30
2021,04,18,07,28,6.30
2021,04,18,07,29,6.40
2021,04,18,07,30,6.40
2021,04,18,07,31,6.50
2021,04,18,07,32,6.60
2021,04,18,07,33,6.60
2021,04,18,07,34,6.70
2021,04,18,07,35,6.80
2021,04,18,07,36,6.90
2021,04,18,07,37,6.90
2021,04,18,07,38,7.00
2021,04,18,07,39,7.00
2021,04,18,07,40,7.10
2021,04,18,07,41,7.20
2021,04,18,07,42,7.30
2021,04,18,07,43,7.30
2021,04,18,07,44,7.40
2021,04,18,07,45,7.50
2021,04,18,07,46,7.60
2021,04,18,07,47,7.60
2021,04,18,07,48,7.70
2021,04,18,07,49,7.80
2021,04,18,07,50,7.90
2021,04,18,07,51,8.00
2021,04,18,07,52,8.10
2021,04,18,07,53,8.20
2021,04,18,07,54,8.30
2021,04,18,07,55,8.50
2021,04,18,07,56,8.60
2021,04,18,07,57,8.80
2021,04,18,07,58,8.90
2021,04,18,07,59,9.00
2021,04,18,08,00,9.10
2021,04,18,08,01,9.20
2021,04,18,08,02,9.30
2021,04,18,08,03,9.40
2021,04,18,08,04,9.40
2021,04,18,08,05,9.50
2021,04,18,08,06,9.50
2021,04,18,08,07,9.60
2021,04,18,08,08,9.70
2021,04,18,08,09,9.80
2021,04,18,08,10,9.80
2021,04,18,08,11,10.00
2021,04,18,08,12,10.10
2021,04,18,08,13,10.20
2021,04,18,08,14,10.30
2021,04,18,08,15,10.40
2021,04,18,08,16,10.50
2021,04,18,08,17,10.60
2021,04,18,08,18,10.70
2021,04,18,08,19,10.80
2021,04,18,08,20,10.90
2021,04,18,08,21,11.10
2021,04,18,08,22,11.20
2021,04,18,08,23,11.30
2021,04,18,08,24,11.40
2021,04,18,08,25,11.50
2021,04,18,08,26,11.60
2021,04,18,08,27,11.70
2021,04,18,08,28,11.90
2021,04,18,08,29,12.10
2021,04,18,08,30,12.10
2021,04,18,08,31,12.20
2021,04,18,08,32,12.30
2021,04,18,08,33,12.40
2021,04,18,08,34,12.60
2021,04,18,08,35,12.70
2021,04,18,08,36,12.90
2021,04,18,08,37,13.00
2021,04,18,08,38,13.20
2021,04,18,08,39,13.30
2021,04,18,08,40,13.30
2021,04,18,08,41,13.40
2021,04,18,08,42,13.40
2021,04,18,08,43,13.50
2021,04,18,08,44,13.50
2021,04,18,08,45,13.50
2021,04,18,08,46,13.60
2021,04,18,08,47,13.60
2021,04,18,08,48,13.60
2021,04,18,08,49,13.70
2021,04,18,08,50,13.70
2021,04,18,08,51,13.70
2021,04,18,08,52,13.70
2021,04,18,08,53,13.80
2021,04,18,08,54,13.80
2021,04,18,08,55,13.90
2021,04,18,08,56,13.90
2021,04,18,08,57,13.90
2021,04,18,08,58,14.00
2021,04,18,08,59,14.10
2021,04,18,09,00,14.20
2021,04,18,09,01,14.20
2021,04,18,09,02,14.30
2021,04,18,09,03,14.30
2021,04,18,09,04,14.30
2021,04,18,09,05,14.40
2021,04,18,09,06,14.50
2021,04,18,09,07,14.60
2021,04,18,09,08,14.70
2021,04,18,09,09,14.90
2021,04,18,09,10,15.00
2021,04,18,09,11,15.10
2021,04,18,09,12,15.30
2021,04,18,09,13,15.40
2021,04,18,09,14,15.50
2021,04,18,09,15,15.50
2021,04,18,09,16,15.60
2021,04,18,09,17,15.70
2021,04,18,09,18,15.70
2021,04,18,09,19,15.80
2021,04,18,09,20,15.80
2021,04,18,09,21,15.80
2021,04,18,09,22,15.80
2021,04,18,09,23,15.90
2021,04,18,09,24,15.90
2021,04,18,09,25,15.90
2021,04,18,09,26,15.80
2021,04,18,09,27,15.80
2021,04,18,09,28,15.80
2021,04,18,09,29,15.70
2021,04,18,09,30,15.70
2021,04,18,09,31,15.60
2021,04,18,09,32,15.60
2021,04,18,09,33,15.60
2021,04,18,09,34,15.60
2021,04,18,09,35,15.50
2021,04,18,09,36,15.50
2021,04,18,09,37,15.50
2021,04,18,09,38,15.50
2021,04,18,09,39,15.50
2021,04,18,09,40,15.40
2021,04,18,09,41,15.40
2021,04,18,09,42,15.40
2021,04,18,09,43,15.40
2021,04,18,09,44,15.40
2021,04,18,09,45,15.30
2021,04,18,09,46,15.20
2021,04,18,09,47,15.20
2021,04,18,09,48,15.10
2021,04,18,09,49,15.00
2021,04,18,09,50,15.00
2021,04,18,09,51,14.90
2021,04,18,09,52,14.80
2021,04,18,09,53,14.70
2021,04,18,09,54,14.70
2021,04,18,09,55,14.70
2021,04,18,09,56,14.70
2021,04,18,09,57,14.70
2021,04,18,09,58,14.80
2021,04,18,09,59,14.80
2021,04,18,10,00,14.90
2021,04,18,10,01,14.90
2021,04,18,10,02,15.00
2021,04,18,10,03,15.10
2021,04,18,10,04,15.10
2021,04,18,10,05,15.20
2021,04,18,10,06,15.20
2021,04,18,10,07,15.30
2021,04,18,10,08,15.30
2021,04,18,10,09,15.50
2021,04,18,10,10,15.50
2021,04,18,10,11,15.60
2021,04,18,10,12,15.70
2021,04,18,10,13,15.90
2021,04,18,10,14,16.00
2021,04,18,10,15,16.10
2021,04,18,10,16,16.10
2021,04,18,10,17,16.20
2021,04,18,10,18,16.20
2021,04,18,10,19,16.20
2021,04,18,10,20,16.20
2021,04,18,10,21,16.10
2021,04,18,10,22,16.10
2021,04,18,10,23,16.10
2021,04,18,10,24,16.00
2021,04,18,10,25,16.00
2021,04,18,10,26,16.00
2021,04,18,10,27,16.10
2021,04,18,10,28,16.20
2021,04,18,10,29,16.30
2021,04,18,10,30,16.40
2021,04,18,10,31,16.40
2021,04,18,10,32,16.50
2021,04,18,10,33,16.50
2021,04,18,10,34,16.60
2021,04,18,10,35,16.60
2021,04,18,10,36,16.60
2021,04,18,10,37,16.40
2021,04,18,10,38,16.30
2021,04,18,10,39,16.30
2021,04,18,10,40,16.30
2021,04,18,10,41,16.30
2021,04,18,10,42,16.40
2021,04,18,10,43,16.40
2021,04,18,10,44,16.50
2021,04,18,10,45,16.60
2021,04,18,10,46,16.60
2021,04,18,10,47,16.60
2021,04,18,10,48,16.60
2021,04,18,10,49,16.60
2021,04,18,10,50,16.50
2021,04,18,10,51,16.40
2021,04,18,10,52,16.40
2021,04,18,10,53,16.40
2021,04,18,10,54,16.50
2021,04,18,10,55,16.50
2021,04,18,10,56,16.70
2021,04,18,10,57,16.80
2021,04,18,10,58,16.80
2021,04,18,10,59,16.80
2021,04,18,11,00,16.80
2021,04,18,11,01,16.70
2021,04,18,11,02,16.80
2021,04,18,11,03,16.80
2021,04,18,11,04,16.80
2021,04,18,11,05,16.80
2021,04,18,11,06,16.80
2021,04,18,11,07,16.80
2021,04,18,11,08,16.90
2021,04,18,11,09,16.90
2021,04,18,11,10,16.90
2021,04,18,11,11,17.00
2021,04,18,11,12,17.10
2021,04,18,11,13,17.10
2021,04,18,11,14,17.30
2021,04,18,11,15,17.30
2021,04,18,11,16,17.30
2021,04,18,11,17,17.30
2021,04,18,11,18,17.30
2021,04,18,11,19,17.30
2021,04,18,11,20,17.30
2021,04,18,11,21,17.40
2021,04,18,11,22,17.40
2021,04,18,11,23,17.50
2021,04,18,11,24,17.60
2021,04,18,11,25,17.70
2021,04,18,11,26,17.80
2021,04,18,11,27,17.90
2021,04,18,11,28,17.80
2021,04,18,11,29,17.80
2021,04,18,11,30,17.70
2021,04,18,11,31,17.50
2021,04,18,11,32,17.40
2021,04,18,11,33,17.30
2021,04,18,11,34,17.20
2021,04,18,11,35,17.20
2021,04,18,11,36,17.20
2021,04,18,11,37,17.30
2021,04,18,11,38,17.30
2021,04,18,11,39,17.40
2021,04,18,11,40,17.50
2021,04,18,11,41,17.50
2021,04,18,11,42,17.60
2021,04,18,11,43,17.60
2021,04,18,11,44,17.60
2021,04,18,11,45,17.60
2021,04,18,11,46,17.50
2021,04,18,11,47,17.40
2021,04,18,11,48,17.40
2021,04,18,11,49,17.40
2021,04,18,11,50,17.50
2021,04,18,11,51,17.50
2021,04,18,11,52,17.50
2021,04,18,11,53,17.50
2021,04,18,11,54,17.50
2021,04,18,11,55,17.50
2021,04,18,11,56,17.50
2021,04,18,11,57,17.40
2021,04,18,11,58,17.40
2021,04,18,11,59,17.40
2021,04,18,12,00,17.50
2021,04,18,12,01,17.50
2021,04,18,12,02,17.60
2021,04,18,12,03,17.60
2021,04,18,12,04,17.70
2021,04,18,12,05,17.70
2021,04,18,12,06,17.70
2021,04,18,12,07,17.70
2021,04,18,12,08,17.70
2021,04,18,12,09,17.70
2021,04,18,12,10,17.70
2021,04,18,12,11,17.70
2021,04,18,12,12,17.80
2021,04,18,12,13,17.90
2021,04,18,12,14,18.00
2021,04,18,12,15,18.10
2021,04,18,12,16,18.00
2021,04,18,12,17,18.00
2021,04,18,12,18,17.90
2021,04,18,12,19,17.90
2021,04,18,12,20,17.80
2021,04,18,12,21,17.80
2021,04,18,12,22,17.90
2021,04,18,12,23,17.90
2021,04,18,12,24,18.00
2021,04,18,12,25,18.00
2021,04,18,12,26,18.10
2021,04,18,12,27,18.10
2021,04,18,12,28,18.10
2021,04,18,12,29,18.10
2021,04,18,12,30,18.10
2021,04,18,12,31,18.10
2021,04,18,12,32,18.20
2021,04,18,12,33,18.20
2021,04,18,12,34,18.20
2021,04,18,12,35,18.20
2021,04,18,12,36,18.30
2021,04,18,12,37,18.30
2021,04,18,12,38,18.30
2021,04,18,12,39,18.40
2021,04,18,12,40,18.50
2021,04,18,12,41,18.60
2021,04,18,12,42,18.70
2021,04,18,12,43,18.70
2021,04,18,12,44,18.70
2021,04,18,12,45,18.70
2021,04,18,12,46,18.70
2021,04,18,12,47,18.80
2021,04,18,12,48,18.80
2021,04,18,12,49,18.90
2021,04,18,12,50,19.00
2021,04,18,12,51,19.00
2021,04,18,12,52,18.90
2021,04,18,12,53,18.80
2021,04,18,12,54,18.70
2021,04,18,12,55,18.80
2021,04,18,12,56,18.90
2021,04,18,12,57,18.90
2021,04,18,12,58,18.90
2021,04,18,12,59,18.90
2021,04,18,13,00,18.90
2021,04,18,13,01,19.00
2021,04,18,13,02,19.10
2021,04,18,13,03,19.10
2021,04,18,13,04,19.10
2021,04,18,13,05,19.10
2021,04,18,13,06,19.10
2021,04,18,13,07,19.00
2021,04,18,13,08,19.10
2021,04,18,13,09,19.10
2021,04,18,13,10,19.10
2021,04,18,13,11,19.20
2021,04,18,13,12,19.20
2021,04,18,13,13,19.30
2021,04,18,13,14,19.40
2021,04,18,13,15,19.50
2021,04,18,13,16,19.60
2021,04,18,13,17,19.60
2021,04,18,13,18,19.60
2021,04,18,13,19,19.50
2021,04,18,13,20,19.50
2021,04,18,13,21,19.40
2021,04,18,13,22,19.40
2021,04,18,13,23,19.40
2021,04,18,13,24,19.40
2021,04,18,13,25,19.50
2021,04,18,13,26,19.60
2021,04,18,13,27,19.70
2021,04,18,13,28,19.70
2021,04,18,13,29,19.80
2021,04,18,13,30,19.90
2021,04,18,13,31,19.90
2021,04,18,13,32,20.00
2021,04,18,13,33,20.10
2021,04,18,13,34,20.10
2021,04,18,13,35,20.20
2021,04,18,13,36,20.20
2021,04,18,13,37,20.20
2021,04,18,13,38,20.20
2021,04,18,13,39,20.20
2021,04,18,13,40,20.20
2021,04,18,13,41,20.20
2021,04,18,13,42,20.20
2021,04,18,13,43,20.20
2021,04,18,13,44,20.20
2021,04,18,13,45,20.20
2021,04,18,13,46,20.20
2021,04,18,13,47,20.10
2021,04,18,13,48,20.20
2021,04,18,13,49,20.20
2021,04,18,13,50,20.20
2021,04,18,13,51,20.30
2021,04,18,13,52,20.30
2021,04,18,13,53,20.40
2021,04,18,13,54,20.50
2021,04,18,13,55,20.50
2021,04,18,13,56,20.50
2021,04,18,13,57,20.50
2021,04,18,13,58,20.50
2021,04,18,13,59,20.50
2021,04,18,14,00,20.50
2021,04,18,14,01,20.60
2021,04,18,14,02,20.70
2021,04,18,14,03,20.70
2021,04,18,14,04,20.80
2021,04,18,14,05,20.80
2021,04,18,14,06,20.70
2021,04,18,14,07,20.80
2021,04,18,14,08,20.70
2021,04,18,14,09,20.80
2021,04,18,14,10,20.80
2021,04,18,14,11,20.80
2021,04,18,14,12,20.90
2021,04,18,14,13,20.80
2021,04,18,14,14,20.80
2021,04,18,14,15,20.80
2021,04,18,14,16,20.80
2021,04,18,14,17,20.90
2021,04,18,14,18,21.00
2021,04,18,14,19,21.00
2021,04,18,14,20,21.00
2021,04,18,14,21,21.00
2021,04,18,14,22,21.00
2021,04,18,14,23,21.10
2021,04,18,14,24,21.10
2021,04,18,14,25,21.10
2021,04,18,14,26,21.10
2021,04,18,14,27,21.20
2021,04,18,14,28,21.20
2021,04,18,14,29,21.30
2021,04,18,14,30,21.30
2021,04,18,14,31,21.40
2021,04,18,14,32,21.50
2021,04,18,14,33,21.60
2021,04,18,14,34,21.70
2021,04,18,14,35,21.70
2021,04,18,14,36,21.60
2021,04,18,14,37,21.60
2021,04,18,14,38,21.70
2021,04,18,14,39,21.70
2021,04,18,14,40,21.80
2021,04,18,14,41,21.80
2021,04,18,14,42,21.90
2021,04,18,14,43,21.90
2021,04,18,14,44,21.90
2021,04,18,14,45,21.90
2021,04,18,14,46,22.00
2021,04,18,14,47,22.00
2021,04,18,14,48,22.00
2021,04,18,14,49,22.10
2021,04,18,14,50,22.10
2021,04,18,14,51,22.10
2021,04,18,14,52,22.00
2021,04,18,14,53,22.00
2021,04,18,14,54,22.00
2021,04,18,14,55,21.90
2021,04,18,14,56,21.80
2021,04,18,14,57,21.80
2021,04,18,14,58,21.70
2021,04,18,14,59,21.70
2021,04,18,15,00,21.70
2021,04,18,15,01,21.70
2021,04,18,15,02,21.60
2021,04,18,15,03,21.60
2021,04,18,15,04,21.60
2021,04,18,15,05,21.70
2021,04,18,15,06,21.70
2021,04,18,15,07,21.80
2021,04,18,15,08,21.80
2021,04,18,15,09,21.90
2021,04,18,15,10,22.00
2021,04,18,15,11,22.10
2021,04,18,15,12,22.10
2021,04,18,15,13,22.10
2021,04,18,15,14,22.10
2021,04,18,15,15,22.00
2021,04,18,15,16,22.00
2021,04,18,15,17,21.90
2021,04,18,15,18,21.80
2021,04,18,15,19,21.80
2021,04,18,15,20,21.80
2021,04,18,15,21,21.90
2021,04,18,15,22,22.00
2021,04,18,15,23,22.10
2021,04,18,15,24,22.20
2021,04,18,15,25,22.20
2021,04,18,15,26,22.20
2021,04,18,15,27,22.20
2021,04,18,15,28,22.20
2021,04,18,15,29,22.20
2021,04,18,15,30,22.20
2021,04,18,15,31,22.10
2021,04,18,15,32,22.10
2021,04,18,15,33,22.10
2021,04,18,15,34,22.00
2021,04,18,15,35,22.00
2021,04,18,15,36,21.90
2021,04,18,15,37,21.90
2021,04,18,15,38,21.80
2021,04,18,15,39,21.80
2021,04,18,15,40,21.80
2021,04,18,15,41,21.90
2021,04,18,15,42,21.90
2021,04,18,15,43,21.80
2021,04,18,15,44,21.80
2021,04,18,15,45,21.80
2021,04,18,15,46,21.90
2021,04,18,15,47,21.90
2021,04,18,15,48,22.00
2021,04,18,15,49,22.10
2021,04,18,15,50,22.10
2021,04,18,15,51,22.10
2021,04,18,15,52,22.10
2021,04,18,15,53,22.20
2021,04,18,15,54,22.20
2021,04,18,15,55,22.30
2021,04,18,15,56,22.30
2021,04,18,15,57,22.40
2021,04,18,15,58,22.50
2021,04,18,15,59,22.60
2021,04,18,16,00,22.60
2021,04,18,16,01,22.70
2021,04,18,16,02,22.80
2021,04,18,16,03,22.80
2021,04,18,16,04,22.80
2021,04,18,16,05,22.80
2021,04,18,16,06,22.90
2021,04,18,16,07,22.80
2021,04,18,16,08,22.80
2021,04,18,16,09,22.70
2021,04,18,16,10,22.70
2021,04,18,16,11,22.60
2021,04,18,16,12,22.60
2021,04,18,16,13,22.60
2021,04,18,16,14,22.60
2021,04,18,16,15,22.70
2021,04,18,16,16,22.70
2021,04,18,16,17,22.80
2021,04,18,16,18,22.80
2021,04,18,16,19,22.90
2021,04,18,16,20,22.90
2021,04,18,16,21,23.00
2021,04,18,16,22,23.00
2021,04,18,16,23,23.00
2021,04,18,16,24,22.90
2021,04,18,16,25,23.00
2021,04,18,16,26,23.00
2021,04,18,16,27,23.00
2021,04,18,16,28,23.00
2021,04,18,16,29,23.00
2021,04,18,16,30,23.00
2021,04,18,16,31,23.00
2021,04,18,16,32,23.10
2021,04,18,16,33,23.10
2021,04,18,16,34,23.20
2021,04,18,16,35,23.20
2021,04,18,16,36,23.20
2021,04,18,16,37,23.30
2021,04,18,16,38,23.30
2021,04,18,16,39,23.30
2021,04,18,16,40,23.40
2021,04,18,16,41,23.40
2021,04,18,16,42,23.40
2021,04,18,16,43,23.40
2021,04,18,16,44,23.40
2021,04,18,16,45,23.40
2021,04,18,16,46,23.50
2021,04,18,16,47,23.50
2021,04,18,16,48,23.50
2021,04,18,16,49,23.60
2021,04,18,16,50,23.70
2021,04,18,16,51,23.70
2021,04,18,16,52,23.70
2021,04,18,16,53,23.70
2021,04,18,16,54,23.80
2021,04,18,16,55,23.80
2021,04,18,16,56,23.80
2021,04,18,16,57,23.90
2021,04,18,16,58,23.90
2021,04,18,16,59,23.90
2021,04,18,17,00,23.90
2021,04,18,17,01,23.90
2021,04,18,17,02,23.90
2021,04,18,17,03,24.00
2021,04,18,17,04,24.00
2021,04,18,17,05,24.00
2021,04,18,17,06,24.10
2021,04,18,17,07,24.10
2021,04,18,17,08,24.10
2021,04,18,17,09,24.10
2021,04,18,17,10,24.10
2021,04,18,17,11,24.10
2021,04,18,17,12,24.20
2021,04,18,17,13,24.20
2021,04,18,17,14,24.30
2021,04,18,17,15,24.30
2021,04,18,17,16,24.30
2021,04,18,17,17,24.30
2021,04,18,17,18,24.30
2021,04,18,17,19,24.30
2021,04,18,17,20,24.20
2021,04,18,17,21,24.30
2021,04,18,17,22,24.30
2021,04,18,17,23,24.30
2021,04,18,17,24,24.30
2021,04,18,17,25,24.30
2021,04,18,17,26,24.30
2021,04,18,17,27,24.30
2021,04,18,17,28,24.30
2021,04,18,17,29,24.30
2021,04,18,17,30,24.30
2021,04,18,17,31,24.20
2021,04,18,17,32,24.20
2021,04,18,17,33,24.20
2021,04,18,17,34,24.20
2021,04,18,17,35,24.10
2021,04,18,17,36,24.20
2021,04,18,17,37,24.20
2021,04,18,17,38,24.10
2021,04,18,17,39,24.20
2021,04,18,17,40,24.20